Temp
55 55 56 56 56 56 56 56 56 56 56 57 57 57 58 57 56 53 46 47 47 42 46 53 55 51 51 49 47 51 53 54 53 49 49 47 47 50 49 50 47 49 46 44 43 42 46 61 63 59 60 61 64 64
55 55 55 55 55 55 55 55 55 55 56 56 56 57 57 57 56 54 42 48 49 44 48 52 57 60 61 60 53 50 50 50 52 49 48 47 49 48 45 47 52 50 52 49 50 50 56 58 59 63 62 63 62 62
55 56 55 55 55 55 55 55 55 56 56 56 56 57 57 56 55 54 49 45 44 43 46 47 53 58 55 58 62 52 51 54 53 53 49 48 48 48 45 47 49 53 52 50 53 55 57 61 63 65 65 64 64 64
55 54 55 55 55 55 55 55 55 55 55 56 56 56 56 55 54 54 46 44 44 44 41 48 59 56 61 58 59 63 57 55 55 52 50 47 48 51 47 49 50 54 53 52 52 56 59 62 63 65 65 65 65 65
54 54 54 54 54 54 55 55 55 55 55 56 56 56 55 55 54 50 51 47 47 47 42 44 52 57 57 57 58 58 55 53 52 53 51 50 48 49 46 47 48 52 53 52 52 58 58 60 62 66 65 65 64 62
54 54 54 54 54 54 55 55 55 55 55 55 55 55 54 54 53 45 48 48 48 48 43 40 49 54 58 62 59 53 54 53 51 52 51 51 54 53 46 43 53 54 54 55 57 57 60 61 62 64 62 62 63 61
54 54 54 54 54 54 54 54 54 54 54 54 54 54 53 53 46 47 49 51 51 48 45 42 44 55 57 56 54 54 52 50 51 48 48 49 51 51 47 47 56 54 56 57 59 58 58 60 59 61 62 61 60 59
54 54 54 54 54 54 54 54 54 54 54 54 54 53 53 53 50 50 52 53 51 47 47 41 44 49 57 51 51 49 50 49 48 46 47 46 48 47 45 49 52 55 56 58 58 60 61 58 58 58 59 59 57 56
53 54 54 54 54 54 54 54 54 54 53 53 53 54 50 49 49 50 58 56 50 50 43 43 41 42 54 49 47 49 46 46 47 45 45 47 43 41 46 47 50 52 51 52 54 58 58 57 56 57 58 57 56 56
54 54 54 54 54 54 53 54 54 53 53 53 51 51 48 49 56 56 51 48 48 47 44 42 44 44 49 45 46 45 44 41 41 45 46 42 42 48 49 50 50 52 53 52 52 53 52 53 54 55 57 58 58 58
53 54 54 54 54 53 53 53 53 52 52 45 41 43 46 52 50 48 46 45 45 43 44 45 45 45 51 46 44 44 42 41 39 44 44 40 41 47 51 50 51 52 52 54 55 54 57 56 55 55 55 56 57 56
53 53 53 53 53 53 53 53 53 48 45 45 46 49 44 47 47 45 43 45 44 44 47 46 47 47 48 47 45 44 42 42 39 44 42 39 44 47 49 51 53 52 53 54 55 55 55 55 55 55 55 55 55 56
53 53 53 53 53 53 53 53 53 53 50 48 47 47 44 46 39 42 42 42 42 46 48 47 47 46 47 47 44 43 42 40 44 41 43 43 46 49 49 51 53 54 56 55 54 54 55 56 56 56 55 55 56 57
52 53 53 53 53 53 54 54 54 52 46 44 44 37 42 41 42 45 46 47 50 48 47 46 45 45 44 45 43 43 44 44 40 37 41 44 46 48 49 52 52 52 53 53 54 54 54 54 55 55 55 57 59 58
52 53 53 52 53 53 54 54 54 49 45 44 45 38 43 48 48 50 52 49 52 48 48 45 45 45 43 43 42 44 42 40 40 40 42 45 47 47 49 51 51 52 54 54 54 54 54 54 53 54 55 55 56 56
52 52 51 53 53 53 53 52 51 48 46 46 44 43 47 45 47 50 50 50 50 47 46 46 43 42 41 42 42 42 41 39 42 43 45 45 46 46 47 49 51 54 53 54 54 54 54 54 54 54 54 54 55 55
52 49 53 52 52 52 53 51 49 47 47 46 44 47 46 46 46 48 51 52 50 50 46 44 43 44 43 42 42 43 42 44 45 46 45 45 46 47 47 48 50 52 53 54 54 53 53 54 54 53 52 54 56 56
49 52 52 52 51 51 51 50 48 48 45 46 42 46 47 49 49 50 49 50 51 52 51 49 47 43 42 41 41 44 44 45 45 46 46 47 47 47 48 47 49 50 51 54 53 53 53 52 51 51 52 56 55 55
51 51 52 52 51 47 46 49 49 43 46 47 46 47 49 49 51 52 50 50 51 53 52 50 45 42 42 43 45 46 45 45 46 47 46 47 48 48 50 50 50 50 51 53 53 53 53 53 50 50 51 52 55 55
52 52 52 52 51 45 45 47 51 44 43 47 47 47 48 49 51 51 50 49 49 51 51 51 47 46 46 48 48 49 48 47 47 47 47 47 47 50 50 50 50 50 50 53 53 50 52 52 51 51 52 52 53 54
51 50 51 50 47 46 45 45 45 45 46 45 49 49 49 48 48 48 49 47 46 46 46 47 48 51 49 50 52 52 48 48 48 50 50 48 48 49 49 49 51 50 50 50 51 51 50 53 53 53 53 53 53 54
48 52 49 49 45 47 44 48 46 46 44 47 47 49 46 46 46 47 48 46 45 48 48 49 50 51 51 51 52 52 51 50 49 48 47 47 49 49 49 50 50 51 51 52 52 53 54 54 54 54 54 55 53 55
50 50 48 47 44 42 42 49 44 46 43 47 48 47 46 45 47 49 47 47 49 50 51 50 51 52 52 54 52 51 51 52 51 50 50 50 50 50 50 51 51 52 52 53 53 54 55 50 53 54 56 56 56 57
50 46 44 43 44 40 47 42 45 45 46 45 46 46 48 47 49 46 46 47 49 49 49 50 51 50 49 50 51 51 52 52 52 51 50 51 51 52 52 53 53 53 54 54 54 54 55 55 51 56 56 57 57 57
40 40 41 36 45 43 41 43 45 44 44 46 45 45 47 50 46 45 46 47 47 49 50 51 55 54 52 50 50 51 51 53 53 53 53 52 52 52 53 53 53 54 55 54 54 56 56 56 56 58 58 58 58 59
35 42 38 43 42 41 42 42 44 44 44 44 45 48 47 46 46 45 46 48 49 50 51 51 52 51 51 51 53 52 55 53 52 52 55 54 54 55 55 55 58 60 56 57 57 57 58 58 58 59 59 58 50 56
36 41 44 47 46 45 43 45 46 45 45 47 48 46 45 45 45 47 49 50 50 52 53 53 54 53 54 53 53 54 54 54 56 57 56 56 57 57 57 57 57 60 58 59 58 60 60 60 60 60 60 60 60 60
43 45 41 44 41 44 43 43 43 44 45 49 50 46 48 48 46 49 50 53 54 54 53 54 54 53 55 56 57 57 56 55 55 56 57 58 58 58 57 58 58 50 61 60 60 60 60 61 60 61 61 61 61 62
41 46 46 43 44 44 43 44 44 46 47 46 45 46 49 53 51 51 52 53 55 55 53 53 55 53 53 54 54 55 56 55 56 57 58 58 58 61 59 59 59 58 58 59 48 53 59 60 61 62 63 62 62 61
42 46 43 44 43 42 45 46 46 48 47 49 49 47 48 50 52 55 55 55 52 54 55 55 56 56 56 56 59 59 57 56 60 62 59 60 63 64 62 61 60 60 59 60 60 59 48 57 55 60 61 62 61 61
47 45 43 44 42 44 47 49 48 47 47 48 48 46 49 49 53 56 58 59 59 55 55 57 58 56 57 56 57 58 60 60 59 62 65 67 63 59 62 62 62 61 59 60 60 61 62 61 61 61 62 61 62 59
42 42 40 40 41 46 46 45 45 44 47 45 46 46 47 47 47 53 56 56 55 54 53 54 57 59 61 64 63 62 55 67 64 61 62 62 63 63 64 62 63 62 61 61 61 62 62 62 61 62 62 62 62 63
40 41 41 40 40 42 44 44 44 44 44 45 46 49 50 50 50 56 56 56 56 57 56 57 60 62 61 63 64 64 56 62 59 51 50 49 51 55 61 62 62 63 63 63 63 63 62 62 62 62 62 62 62 62
MSLP
1025.58 1025.36 1025.14 1024.84 1024.44 1024.10 1023.69 1023.28 1022.87 1022.40 1021.90 1021.39 1020.89 1020.45 1020.08 1019.67 1019.30 1019.10 1018.80 1018.37 1018.50 1018.25 1016.19 1014.89 1014.25 1013.69 1013.29 1013.40 1013.44 1012.57 1012.07 1011.56 1011.16 1011.37 1011.48 1011.32 1010.79 1009.82 1009.42 1008.68 1008.69 1009.31 1009.87 1010.26 1010.07 1008.99 1007.52 1006.18 1005.81 1005.83 1005.28 1005.00 1005.15 1005.29
1025.35 1025.08 1024.83 1024.59 1024.27 1023.92 1023.56 1023.14 1022.73 1022.30 1021.82 1021.31 1020.81 1020.33 1019.95 1019.68 1019.39 1019.12 1019.20 1018.56 1018.49 1018.55 1016.21 1014.79 1013.64 1012.71 1012.34 1012.43 1013.03 1012.97 1012.78 1012.35 1011.81 1012.05 1012.20 1011.97 1011.47 1010.87 1010.59 1010.05 1009.17 1009.53 1009.42 1009.66 1009.66 1008.34 1007.18 1006.56 1006.02 1005.37 1005.38 1005.59 1005.67 1005.79
1025.08 1024.73 1024.51 1024.27 1023.98 1023.66 1023.33 1022.97 1022.55 1022.10 1021.63 1021.14 1020.64 1020.13 1019.72 1019.49 1019.32 1019.25 1019.15 1019.07 1018.74 1018.27 1016.19 1014.76 1012.92 1011.81 1011.76 1011.98 1011.98 1012.49 1012.35 1011.81 1011.81 1011.90 1012.26 1012.43 1012.13 1011.59 1011.45 1010.73 1009.95 1009.29 1009.23 1009.35 1009.00 1007.91 1007.22 1006.61 1006.01 1005.68 1005.68 1005.81 1005.89 1005.99
1024.85 1024.55 1024.28 1023.98 1023.67 1023.35 1023.01 1022.65 1022.23 1021.78 1021.30 1020.81 1020.30 1019.81 1019.43 1019.17 1019.00 1018.92 1019.03 1018.90 1018.86 1018.46 1017.51 1014.18 1012.42 1011.87 1011.08 1011.13 1011.25 1011.26 1011.36 1011.56 1011.74 1011.99 1012.43 1012.66 1012.56 1011.72 1011.51 1010.94 1010.57 1009.76 1009.43 1009.23 1008.80 1007.72 1007.12 1006.44 1006.23 1005.98 1006.20 1006.22 1006.30 1006.63
1024.58 1024.27 1023.97 1023.67 1023.35 1023.01 1022.63 1022.25 1021.83 1021.36 1020.86 1020.33 1019.79 1019.29 1018.94 1018.69 1018.44 1018.38 1018.28 1018.13 1018.14 1018.46 1017.70 1015.27 1013.08 1011.36 1010.81 1010.59 1010.66 1011.09 1011.62 1012.12 1012.32 1012.58 1012.74 1012.74 1012.07 1012.04 1011.80 1011.50 1010.75 1009.76 1009.55 1009.40 1008.62 1007.81 1007.53 1006.91 1006.35 1006.12 1006.55 1006.88 1007.13 1007.32
1024.24 1023.96 1023.65 1023.31 1022.97 1022.62 1022.21 1021.80 1021.36 1020.86 1020.33 1019.79 1019.23 1018.69 1018.32 1018.15 1017.97 1018.12 1017.99 1017.74 1017.73 1017.79 1017.75 1016.36 1013.82 1012.25 1011.07 1010.53 1010.60 1011.19 1011.69 1012.18 1012.41 1012.39 1012.42 1012.06 1011.40 1011.47 1011.89 1011.87 1010.32 1009.88 1009.66 1009.41 1008.49 1007.78 1007.49 1006.99 1006.62 1006.45 1007.04 1007.57 1007.82 1008.14
1023.91 1023.61 1023.30 1023.00 1022.66 1022.28 1021.87 1021.41 1020.89 1020.33 1019.74 1019.13 1018.53 1017.99 1017.56 1017.48 1017.92 1017.66 1017.59 1017.39 1017.28 1017.52 1017.52 1016.83 1014.88 1012.60 1011.66 1011.35 1011.54 1011.79 1011.91 1012.10 1012.25 1012.49 1012.56 1012.26 1011.81 1011.72 1011.90 1011.81 1010.53 1010.27 1009.51 1008.79 1008.31 1007.95 1007.61 1007.12 1007.09 1007.09 1007.21 1007.97 1008.41 1009.00
1023.61 1023.30 1022.98 1022.66 1022.36 1021.98 1021.54 1021.06 1020.47 1019.81 1019.14 1018.43 1017.76 1017.19 1016.53 1016.55 1017.22 1016.93 1016.59 1016.35 1017.18 1017.56 1017.39 1017.23 1015.63 1013.99 1012.42 1012.68 1012.79 1012.54 1012.53 1012.54 1012.88 1013.03 1012.84 1012.85 1012.39 1012.34 1012.39 1012.00 1011.40 1010.75 1009.95 1008.66 1008.66 1008.36 1007.70 1007.66 1007.65 1007.98 1008.17 1008.63 1009.43 1010.01
1023.25 1023.02 1022.69 1022.33 1022.00 1021.67 1021.24 1020.72 1020.07 1019.31 1018.51 1017.72 1017.04 1016.75 1016.88 1016.82 1017.00 1016.71 1016.48 1016.46 1016.68 1017.32 1017.37 1017.22 1016.39 1014.89 1013.22 1013.52 1013.71 1013.36 1013.55 1013.72 1013.58 1013.71 1013.51 1013.48 1013.39 1013.28 1013.01 1012.58 1012.08 1011.54 1011.33 1010.52 1009.32 1008.48 1008.10 1008.15 1008.23 1008.46 1008.83 1009.48 1009.93 1010.57
1022.93 1022.62 1022.37 1022.05 1021.67 1021.35 1020.99 1020.49 1019.87 1018.98 1017.99 1017.11 1016.73 1017.05 1017.12 1016.88 1016.59 1016.28 1016.40 1016.53 1016.63 1016.78 1017.06 1016.90 1016.13 1015.23 1014.39 1014.43 1014.29 1014.57 1014.54 1014.79 1014.51 1014.23 1013.84 1013.79 1013.95 1013.20 1012.74 1012.75 1012.26 1011.39 1010.84 1010.59 1010.04 1009.43 1009.13 1008.79 1008.62 1008.86 1009.03 1009.41 1009.87 1010.49
1022.60 1022.31 1022.01 1021.74 1021.40 1021.05 1020.73 1020.30 1019.78 1018.94 1017.80 1017.93 1018.32 1018.17 1017.48 1016.66 1016.35 1016.37 1016.46 1016.51 1016.53 1016.63 1016.45 1015.80 1015.61 1015.22 1014.28 1014.67 1014.81 1014.94 1014.97 1014.98 1014.93 1014.56 1014.33 1014.48 1014.26 1013.67 1013.11 1012.53 1011.92 1011.40 1011.08 1010.70 1010.28 1009.64 1009.18 1009.30 1009.39 1009.13 1009.62 1010.18 1010.47 1010.96
1022.25 1021.97 1021.68 1021.39 1021.11 1020.75 1020.41 1020.07 1019.75 1019.59 1019.43 1019.42 1019.39 1018.81 1018.27 1017.23 1016.69 1016.50 1016.25 1016.19 1016.18 1015.83 1015.44 1015.26 1014.97 1014.88 1014.54 1014.45 1014.69 1014.91 1014.91 1015.03 1014.88 1014.51 1014.60 1014.67 1014.35 1013.76 1013.27 1012.65 1012.13 1011.76 1011.32 1010.71 1010.25 1010.13 1009.48 1009.56 1010.38 1010.19 1010.07 1010.59 1010.87 1011.32
1021.93 1021.63 1021.33 1021.08 1020.78 1020.46 1020.06 1019.71 1019.50 1019.38 1019.15 1019.17 1018.98 1018.52 1018.01 1017.21 1016.75 1016.22 1015.76 1015.53 1015.53 1015.01 1014.80 1014.75 1015.01 1014.93 1014.52 1014.50 1014.69 1014.74 1014.77 1014.82 1014.42 1014.61 1014.66 1014.56 1014.10 1013.72 1013.25 1012.66 1012.15 1011.77 1011.51 1011.15 1010.51 1010.55 1010.64 1010.27 1010.32 1011.18 1011.24 1011.14 1011.24 1011.59
1021.59 1021.25 1020.97 1020.72 1020.44 1020.04 1019.80 1019.59 1019.37 1019.21 1019.32 1019.08 1018.65 1018.30 1017.50 1016.58 1015.80 1014.97 1014.64 1014.30 1014.04 1014.18 1014.49 1014.73 1014.98 1015.00 1014.89 1014.75 1014.79 1014.69 1014.43 1014.40 1014.64 1014.85 1014.78 1014.44 1014.11 1013.77 1013.28 1012.85 1012.47 1012.07 1011.78 1011.64 1011.14 1010.71 1011.40 1011.19 1011.16 1011.63 1011.95 1011.68 1011.80 1012.10
1021.25 1020.88 1020.58 1020.32 1020.13 1019.89 1019.62 1019.38 1019.22 1019.29 1019.29 1018.95 1018.41 1017.59 1016.45 1015.30 1014.71 1014.17 1013.82 1013.80 1013.59 1013.78 1014.18 1014.71 1014.92 1014.99 1014.97 1014.88 1014.79 1014.57 1014.43 1014.50 1014.75 1014.81 1014.52 1014.15 1013.92 1013.77 1013.40 1012.99 1012.60 1012.23 1011.97 1011.87 1011.78 1011.81 1012.01 1011.92 1012.17 1012.46 1012.33 1012.19 1012.30 1012.50
1020.90 1020.52 1020.24 1020.11 1019.98 1019.71 1019.36 1019.07 1019.08 1019.26 1019.01 1018.54 1017.84 1016.80 1015.57 1015.29 1014.55 1013.93 1013.58 1013.52 1013.33 1013.78 1014.05 1014.35 1014.89 1015.11 1015.03 1014.97 1014.86 1014.55 1014.58 1014.55 1014.46 1014.31 1013.89 1013.93 1013.77 1013.52 1013.36 1013.03 1012.70 1012.41 1012.28 1012.14 1012.06 1012.01 1012.37 1012.39 1012.40 1012.52 1012.49 1012.41 1012.39 1012.56
1020.68 1020.43 1020.17 1020.07 1019.87 1019.44 1019.03 1019.08 1019.05 1018.83 1018.32 1017.60 1016.63 1015.79 1015.65 1015.16 1014.72 1014.08 1013.60 1013.39 1013.27 1013.60 1014.17 1014.38 1014.68 1014.56 1014.82 1014.85 1014.77 1014.55 1014.36 1014.05 1013.73 1013.57 1013.55 1013.56 1013.58 1013.32 1013.23 1013.04 1012.73 1012.49 1012.38 1012.40 1012.41 1012.42 1012.66 1012.57 1012.32 1012.48 1012.61 1012.58 1012.48 1012.63
1020.23 1019.95 1020.05 1020.01 1019.78 1019.31 1019.00 1018.83 1018.57 1018.06 1017.37 1016.44 1016.19 1015.36 1015.00 1014.52 1014.08 1013.63 1013.20 1013.02 1013.25 1013.23 1013.47 1013.45 1013.67 1014.17 1014.52 1014.65 1014.41 1013.82 1013.61 1013.41 1013.40 1013.38 1013.23 1013.26 1013.22 1013.10 1013.00 1012.92 1012.65 1012.50 1012.45 1012.39 1012.32 1012.59 1012.91 1012.84 1012.83 1012.93 1012.92 1012.84 1012.87 1012.88
1019.80 1019.81 1019.87 1019.96 1019.93 1019.75 1019.22 1018.35 1018.12 1017.45 1016.30 1015.74 1015.16 1014.72 1014.38 1013.83 1013.22 1012.79 1012.71 1012.62 1012.59 1012.52 1012.73 1013.07 1013.63 1014.11 1013.94 1013.59 1013.37 1013.17 1013.15 1013.38 1013.34 1013.20 1013.11 1012.99 1012.91 1012.87 1012.68 1012.54 1012.52 1012.50 1012.60 1012.57 1012.38 1012.65 1013.03 1013.11 1013.11 1013.13 1013.26 1013.31 1013.22 1013.27
1019.42 1019.43 1019.56 1019.71 1019.83 1019.66 1018.92 1017.95 1017.42 1017.03 1016.03 1015.11 1014.71 1014.26 1013.85 1013.25 1012.60 1012.40 1012.31 1012.38 1012.37 1012.50 1012.56 1012.83 1012.86 1012.64 1012.63 1012.04 1012.07 1012.19 1012.47 1012.71 1012.99 1013.18 1013.13 1012.90 1012.83 1012.70 1012.61 1012.57 1012.58 1012.56 1012.59 1012.72 1012.82 1012.80 1013.05 1013.13 1013.19 1013.27 1013.26 1013.30 1013.36 1013.22
1018.98 1018.98 1019.14 1019.38 1019.51 1019.47 1018.95 1017.74 1017.03 1016.28 1015.51 1015.00 1014.06 1013.80 1013.19 1012.73 1012.51 1012.29 1012.13 1012.04 1012.39 1012.45 1012.27 1011.93 1011.70 1011.17 1011.24 1011.23 1011.30 1011.60 1011.96 1012.25 1012.53 1012.65 1012.70 1012.76 1012.62 1012.56 1012.65 1012.58 1012.48 1012.56 1012.71 1012.83 1012.83 1012.83 1012.87 1012.93 1012.86 1012.89 1012.97 1013.03 1013.06 1013.03
1018.81 1018.82 1018.91 1019.09 1019.05 1018.59 1018.13 1017.12 1016.72 1016.00 1015.64 1014.47 1013.93 1013.29 1012.94 1012.52 1012.13 1011.69 1011.44 1011.89 1011.87 1011.29 1010.99 1011.01 1010.65 1010.45 1010.74 1010.87 1011.03 1011.22 1011.45 1011.70 1012.02 1012.24 1012.35 1012.45 1012.50 1012.55 1012.52 1012.43 1012.41 1012.45 1012.43 1012.46 1012.53 1012.54 1012.48 1012.45 1012.50 1012.61 1012.79 1012.75 1012.74 1012.63
1018.58 1018.62 1018.52 1018.51 1018.44 1017.84 1016.98 1016.42 1016.32 1015.51 1015.12 1014.00 1013.39 1012.95 1012.39 1011.89 1011.25 1011.06 1011.10 1010.91 1010.49 1009.86 1009.64 1009.76 1009.79 1009.90 1010.16 1010.26 1010.60 1010.94 1011.33 1011.44 1011.81 1012.00 1012.05 1012.12 1012.12 1012.09 1012.13 1012.14 1012.15 1012.21 1012.21 1012.01 1011.99 1012.03 1012.10 1012.05 1012.08 1012.20 1012.33 1012.38 1012.36 1012.26
1018.49 1018.30 1017.98 1017.68 1017.42 1016.83 1016.44 1016.09 1015.58 1014.97 1014.20 1013.68 1013.08 1012.31 1011.55 1010.97 1010.76 1010.85 1010.78 1010.34 1009.60 1009.44 1009.46 1009.38 1009.54 1009.94 1010.26 1010.32 1010.56 1010.76 1010.90 1011.07 1011.30 1011.45 1011.58 1011.69 1011.80 1011.71 1011.65 1011.58 1011.55 1011.51 1011.55 1011.60 1011.68 1011.70 1011.67 1011.78 1011.81 1011.94 1012.04 1012.08 1012.04 1011.96
1018.36 1017.97 1017.71 1016.97 1016.52 1016.36 1015.95 1015.25 1014.59 1014.23 1013.64 1013.04 1012.55 1011.67 1010.91 1010.48 1010.46 1010.47 1010.26 1009.83 1009.50 1009.30 1009.14 1009.17 1009.21 1009.36 1009.76 1010.10 1010.28 1010.20 1010.30 1010.47 1010.83 1011.13 1010.89 1011.00 1011.08 1011.17 1011.15 1011.11 1010.95 1010.78 1010.97 1011.26 1011.29 1011.31 1011.32 1011.46 1011.52 1011.49 1011.55 1011.66 1011.62 1011.56
1017.44 1016.83 1016.72 1016.08 1015.85 1015.75 1015.08 1014.42 1013.81 1013.42 1013.07 1012.47 1011.73 1010.91 1010.51 1010.42 1010.26 1010.07 1009.89 1009.57 1009.43 1009.20 1009.03 1009.05 1009.02 1009.28 1009.44 1009.51 1009.70 1009.81 1009.58 1009.82 1010.33 1010.54 1010.04 1010.01 1010.13 1010.36 1010.46 1010.59 1010.40 1009.95 1010.01 1010.07 1010.32 1010.58 1010.67 1010.83 1010.94 1011.02 1011.06 1011.03 1011.10 1011.23
1016.59 1015.87 1015.69 1015.38 1015.19 1014.93 1014.47 1013.76 1013.36 1013.10 1012.54 1011.71 1010.94 1010.71 1010.36 1010.08 1009.84 1009.76 1009.49 1009.33 1009.26 1009.03 1008.85 1008.76 1008.77 1008.94 1008.89 1008.91 1008.95 1008.83 1008.89 1009.07 1009.20 1009.26 1009.26 1009.15 1009.12 1009.19 1009.49 1009.59 1009.49 1009.05 1009.21 1009.34 1009.46 1009.69 1009.84 1010.09 1010.28 1010.39 1010.47 1010.49 1010.40 1010.33
1015.83 1015.32 1015.05 1014.83 1014.87 1014.51 1014.20 1013.64 1013.17 1012.57 1011.92 1011.09 1010.76 1010.48 1009.81 1009.36 1009.56 1009.42 1009.20 1008.87 1008.67 1008.52 1008.49 1008.39 1008.25 1008.21 1008.24 1008.05 1008.00 1008.22 1008.43 1008.72 1008.92 1008.92 1008.76 1008.54 1008.29 1008.31 1008.43 1008.41 1008.29 1008.31 1008.37 1008.61 1008.80 1008.99 1009.18 1009.31 1009.55 1009.71 1009.88 1009.92 1009.72 1009.67
1015.41 1014.86 1014.68 1014.36 1014.28 1013.98 1013.52 1013.13 1012.56 1011.85 1011.31 1011.16 1011.01 1010.50 1009.87 1009.29 1009.14 1009.02 1008.57 1008.46 1008.20 1008.30 1008.26 1008.13 1007.81 1007.65 1007.63 1007.52 1007.56 1007.62 1007.90 1008.23 1008.62 1008.48 1008.29 1008.08 1007.99 1007.60 1007.42 1007.47 1007.77 1007.89 1008.01 1008.23 1008.28 1008.32 1008.41 1008.60 1008.86 1009.07 1009.15 1009.33 1009.43 1009.67
1014.62 1014.30 1014.13 1013.79 1013.51 1013.03 1012.29 1011.90 1011.57 1011.12 1011.02 1010.79 1010.62 1010.43 1009.90 1009.21 1008.60 1008.09 1007.90 1007.84 1007.82 1007.58 1007.36 1007.29 1007.22 1007.11 1007.04 1007.03 1006.86 1006.84 1006.78 1006.96 1007.26 1007.52 1007.42 1007.21 1006.94 1006.61 1006.86 1007.14 1007.36 1007.58 1007.69 1007.80 1008.15 1008.43 1008.42 1008.51 1008.77 1008.88 1009.03 1009.14 1009.29 1009.39
1013.65 1013.64 1013.56 1013.17 1012.65 1011.94 1011.47 1011.11 1010.96 1010.85 1010.70 1010.42 1010.16 1010.30 1009.90 1009.40 1008.25 1007.33 1007.01 1006.70 1006.68 1006.77 1006.82 1006.57 1006.33 1006.45 1006.45 1006.43 1006.55 1006.51 1006.44 1005.98 1006.00 1006.04 1006.01 1005.93 1005.91 1006.06 1006.22 1006.43 1006.51 1006.70 1007.27 1007.63 1007.86 1008.14 1008.33 1008.42 1008.56 1008.68 1008.81 1008.91 1008.91 1009.05
1013.20 1013.04 1012.92 1012.69 1012.02 1011.24 1010.98 1010.83 1010.45 1010.05 1009.72 1009.63 1009.43 1009.36 1009.25 1009.12 1008.66 1007.35 1006.24 1006.23 1006.30 1006.41 1006.08 1006.06 1006.09 1005.61 1005.25 1005.17 1005.21 1005.43 1005.17 1004.96 1004.99 1005.09 1005.23 1005.34 1005.37 1005.28 1005.46 1005.67 1005.88 1006.32 1006.69 1007.16 1007.39 1007.52 1007.78 1007.95 1008.09 1008.17 1008.27 1008.35 1008.35 1008.38
1012.47 1012.34 1012.25 1012.19 1011.43 1010.76 1010.17 1010.01 1009.55 1008.94 1008.55 1008.25 1007.96 1007.65 1007.64 1007.78 1007.45 1006.39 1005.88 1005.79 1005.82 1005.65 1005.56 1005.36 1005.04 1004.76 1004.59 1004.65 1004.51 1004.33 1004.22 1004.27 1004.20 1004.19 1004.13 1004.04 1004.10 1004.12 1004.53 1004.99 1005.28 1005.59 1005.96 1006.42 1006.77 1006.97 1007.22 1007.42 1007.54 1007.57 1007.62 1007.62 1007.60 1007.69
Wind_Speed
11 12 12 13 13 14 15 15 16 17 18 18 19 18 18 17 17 8 4 1 2 2 7 5 4 5 1 2 2 5 5 4 4 4 2 2 3 3 2 3 2 4 4 2 2 1 6 1 1 7 6 2 1 3
12 11 12 13 13 13 14 14 15 16 17 18 19 19 18 16 14 9 3 3 2 3 7 3 7 7 6 9 4 2 4 3 4 4 1 1 1 2 1 3 3 1 5 4 8 7 4 5 3 4 2 1 1 4
12 12 11 12 13 13 14 15 15 16 17 19 19 19 18 15 12 6 3 3 1 2 6 4 5 3 2 9 7 4 3 3 1 3 3 2 1 4 0 4 2 2 3 1 3 3 5 5 5 3 1 1 2 4
12 13 13 13 13 14 14 16 16 17 17 18 20 20 18 15 10 6 2 2 1 0 2 8 3 7 3 4 9 13 2 2 3 3 1 2 1 3 4 3 3 5 2 2 5 6 6 5 5 4 2 4 5 5
12 12 12 13 13 14 15 16 17 17 18 19 20 20 18 15 12 4 4 4 2 2 3 7 9 5 8 5 9 6 3 1 1 0 2 4 2 2 1 1 3 3 3 2 6 4 3 7 6 4 5 4 4 4
11 12 13 13 14 15 16 16 18 19 20 20 21 20 18 13 7 0 3 2 4 3 2 5 5 7 6 7 6 5 4 3 2 4 3 3 3 3 2 3 5 2 4 5 6 2 5 6 4 2 6 6 5 6
12 12 13 14 14 15 16 17 18 19 20 21 22 21 18 10 2 3 4 1 4 2 2 5 6 5 5 4 3 3 2 1 2 1 1 2 1 3 3 3 5 8 10 10 6 2 5 3 2 3 9 8 10 9
12 12 13 14 15 15 16 17 19 20 21 23 23 21 14 5 3 1 1 4 4 2 2 1 6 6 5 4 4 4 4 3 5 0 2 3 4 2 1 4 7 10 14 8 10 8 7 4 6 6 9 11 11 10
12 13 13 13 14 15 16 18 20 21 23 24 22 7 1 1 1 2 7 6 1 3 1 1 1 4 5 2 1 4 3 3 3 2 1 2 3 2 4 5 7 7 4 11 16 7 4 5 7 9 9 10 12 8
13 13 13 13 14 15 16 17 19 21 24 18 3 1 1 1 11 4 3 2 2 2 2 3 1 4 2 2 3 3 3 1 3 3 2 4 2 5 6 6 8 10 9 7 8 5 1 5 9 11 8 10 12 11
13 13 13 13 14 15 16 16 17 20 9 5 5 2 4 12 2 2 1 1 0 2 3 4 5 2 2 1 2 1 1 1 3 4 2 3 3 4 8 10 8 7 7 7 6 9 9 1 5 10 8 6 7 7
13 13 13 13 14 15 15 15 13 5 0 2 4 4 3 3 3 1 2 1 2 4 2 3 3 5 3 2 2 2 1 2 3 2 3 3 4 5 7 8 8 8 8 6 7 7 5 9 5 1 6 6 6 6
13 13 13 13 14 15 15 14 9 8 5 0 2 2 3 1 2 4 4 2 2 3 3 0 2 0 3 4 2 2 2 4 0 3 1 4 3 5 6 6 7 7 7 6 9 11 8 4 10 5 3 5 8 8
13 13 13 13 15 15 9 8 8 5 2 1 2 5 4 3 5 5 4 3 4 3 3 2 0 1 1 3 0 1 2 1 2 2 2 3 4 5 6 5 4 6 6 6 5 11 6 7 7 6 4 5 7 8
13 14 12 13 6 10 11 11 8 1 1 2 1 4 5 4 4 4 3 1 2 3 3 2 2 2 2 1 1 1 1 2 3 3 4 4 4 4 5 5 5 5 3 4 4 5 4 4 5 3 3 5 5 5
12 12 3 3 7 11 14 6 1 1 2 3 4 3 3 1 3 3 1 2 3 3 2 3 3 2 2 1 1 3 1 3 4 4 4 2 3 4 4 4 5 4 2 3 3 4 1 3 4 3 3 4 5 6
6 3 1 6 10 14 8 1 1 3 3 4 4 3 3 4 5 4 1 3 2 3 2 3 2 4 2 0 2 3 4 4 4 5 2 4 4 4 5 5 5 3 3 2 3 1 3 0 4 4 5 3 6 5
4 1 1 6 8 4 1 3 3 3 6 4 3 3 3 3 3 4 3 2 2 3 4 5 4 2 3 3 3 5 5 4 3 4 4 2 3 4 4 5 4 4 3 3 5 4 3 1 4 2 3 2 4 5
2 3 4 3 5 2 2 3 2 4 5 3 4 3 3 4 4 4 3 2 4 2 4 2 3 3 4 5 5 4 3 4 3 2 2 3 2 3 3 3 2 1 3 4 7 5 3 3 2 3 3 1 1 1
11 10 7 3 2 1 3 4 2 3 4 3 2 3 3 4 3 2 2 2 3 2 3 3 5 5 5 5 5 4 3 3 3 2 2 2 1 1 1 0 1 1 1 2 1 2 3 2 2 3 3 3 3 3
3 2 5 4 2 3 3 3 3 4 4 3 2 2 4 2 3 3 3 3 2 3 3 5 5 5 4 4 2 3 3 4 4 4 3 1 2 1 0 1 1 2 2 2 3 3 3 3 2 3 3 3 4 4
2 6 1 3 3 4 4 4 3 3 3 4 3 2 3 3 3 4 3 2 4 5 5 5 5 4 3 3 4 4 3 5 3 1 1 2 1 1 2 2 2 1 2 2 3 3 3 3 3 3 3 3 3 3
1 4 2 4 4 4 5 1 3 3 3 3 3 3 3 3 4 1 2 3 5 5 5 5 3 3 3 3 4 4 4 5 2 3 3 4 3 3 2 3 3 3 2 3 3 3 3 3 4 3 3 2 1 2
1 2 3 3 4 3 1 3 3 3 3 2 3 4 4 3 1 1 3 3 4 1 3 4 4 3 3 3 3 3 4 4 2 2 3 3 2 3 4 4 3 4 4 1 2 3 3 3 3 3 3 3 3 3
3 4 3 5 2 3 4 3 4 2 4 3 3 4 4 1 1 2 3 4 2 2 2 3 3 3 4 3 1 3 4 5 4 4 3 5 3 1 3 4 4 5 4 4 4 4 3 3 3 4 4 4 5 6
4 6 6 4 2 3 4 3 4 5 3 3 5 4 1 0 1 4 3 2 2 2 1 3 4 4 2 4 4 4 5 5 4 3 4 5 5 4 3 3 2 4 6 5 4 5 5 5 4 5 5 6 8 6
4 5 4 3 2 2 3 3 3 2 3 4 3 2 1 3 3 3 3 2 2 2 1 2 3 4 4 3 4 3 3 5 6 4 2 4 4 5 5 5 6 5 4 6 6 6 6 6 5 6 5 4 5 5
3 2 4 3 3 3 3 3 2 4 4 3 1 2 3 2 3 3 3 3 4 3 3 3 4 4 5 6 4 3 2 3 3 3 4 4 5 4 5 6 6 8 4 4 5 5 6 6 6 5 5 6 6 2
3 2 2 4 3 4 5 6 5 4 3 2 1 3 3 2 2 2 4 3 2 3 4 3 4 3 4 4 4 4 4 4 4 4 7 5 5 5 4 4 3 3 4 4 2 6 8 6 5 5 5 4 1 2
4 4 3 3 5 6 5 6 4 3 3 3 2 3 4 4 4 4 4 3 4 5 4 4 4 3 2 2 4 3 4 5 7 7 6 7 8 4 4 4 5 4 4 4 4 3 6 4 4 2 2 2 1 2
2 3 3 3 4 4 5 4 2 2 2 4 4 4 5 4 5 4 5 4 5 2 3 4 3 3 4 4 5 4 5 4 9 12 11 7 5 5 5 6 5 5 4 4 5 3 3 3 3 4 4 6 6 5
3 6 4 4 4 4 1 3 4 5 5 5 5 4 2 2 4 5 3 1 1 3 6 4 4 6 5 6 3 5 9 4 5 8 10 6 7 7 5 5 5 5 6 6 6 5 7 8 5 6 6 7 7 6
3 2 3 3 3 3 3 3 3 4 3 4 5 7 7 6 7 5 1 3 4 4 4 5 7 7 7 7 7 6 7 5 7 10 13 14 14 9 5 5 5 7 8 7 7 7 8 7 6 7 7 8 8 7
Wind_Direction
318 321 321 325 329 330 333 335 336 337 339 340 341 343 347 353 357 1 279 261 107 227 275 216 227 194 212 119 208 287 2 331 10 53 118 230 206 263 319 232 198 173 141 224 82 160 274 355 136 176 224 317 359 224
319 315 316 318 322 324 324 328 329 330 334 335 336 337 341 348 352 5 304 338 20 184 250 259 246 243 216 207 152 260 202 240 220 80 310 139 313 7 132 255 0 163 179 197 175 220 262 282 265 292 176 357 353 156
316 309 310 314 314 315 317 320 323 326 328 329 329 330 333 337 340 343 280 289 0 308 299 340 249 279 184 216 199 164 258 226 292 180 164 188 273 132 206 254 295 281 157 189 27 269 255 272 285 281 59 115 202 151
314 317 315 310 309 312 313 313 316 319 321 322 322 323 326 326 323 315 239 216 119 222 320 282 332 305 236 215 194 213 159 31 106 88 128 137 221 158 225 237 184 220 13 202 263 295 291 262 234 302 60 96 91 102
307 310 311 312 311 311 312 312 312 314 316 318 318 318 320 322 312 270 241 221 216 128 256 283 307 264 288 247 206 193 214 83 322 232 121 233 221 116 295 41 272 197 219 164 233 229 192 257 301 204 169 135 95 99
303 308 309 310 312 312 314 313 312 312 313 314 313 312 315 316 318 316 351 200 196 178 68 325 294 290 325 13 97 141 174 183 191 165 215 251 250 127 153 222 264 271 266 218 258 345 240 268 288 119 122 125 113 104
300 306 311 311 312 313 313 314 314 312 312 312 311 311 309 294 147 162 186 227 142 132 77 316 325 298 318 3 36 45 35 161 140 157 236 264 295 102 127 211 310 324 313 303 256 251 290 232 247 112 111 101 98 91
304 303 308 312 312 313 314 313 313 313 313 312 312 315 310 155 233 332 294 238 151 74 86 312 279 338 3 345 343 359 2 21 17 342 0 20 334 40 296 286 319 327 325 324 358 303 249 128 97 85 104 115 99 101
305 305 305 309 311 312 313 314 316 316 314 312 311 303 157 44 65 230 345 131 146 135 200 160 234 276 351 342 277 353 27 4 304 43 337 62 340 29 266 300 306 301 295 290 312 321 126 126 122 127 121 113 119 130
305 306 304 307 310 312 314 316 319 318 315 313 12 36 331 243 314 341 38 50 34 354 67 227 145 269 78 14 326 11 24 23 6 276 336 56 270 257 270 276 284 296 314 339 337 316 13 147 155 148 147 145 143 149
303 305 305 307 310 312 315 317 323 327 345 25 13 318 301 310 56 42 309 146 122 266 190 240 189 254 316 81 253 102 197 340 36 280 62 349 315 293 326 317 316 321 315 306 283 276 235 191 170 138 128 133 137 146
304 304 306 306 310 313 315 316 324 352 333 258 271 280 305 349 42 91 252 308 197 235 224 190 238 199 289 99 82 352 100 32 251 307 59 348 263 291 321 333 332 333 332 14 23 338 69 79 354 178 142 138 119 113
306 303 304 306 308 311 315 322 320 291 313 340 238 300 57 279 51 207 205 235 269 213 233 199 318 353 350 46 67 59 44 244 28 41 254 226 263 306 322 325 331 343 347 357 54 41 13 72 70 15 73 111 118 117
305 302 301 304 310 306 312 332 339 346 349 336 1 323 176 221 242 201 199 198 242 165 156 135 352 76 346 18 120 13 253 58 19 10 264 258 254 287 306 316 337 339 356 358 28 64 15 53 76 73 77 87 122 124
304 302 295 299 307 329 321 315 316 331 304 276 186 238 226 241 258 249 236 281 223 140 116 82 49 79 355 2 357 348 278 298 213 236 236 241 250 278 293 318 309 315 17 39 46 72 52 77 85 93 98 106 111 108
308 303 251 310 336 325 316 315 101 149 250 244 236 272 252 326 293 323 218 256 165 126 85 65 94 50 299 157 305 243 108 240 255 229 237 247 251 253 265 289 295 300 320 62 63 45 61 142 114 125 101 108 125 134
296 246 24 343 334 314 305 224 190 230 245 241 251 232 240 249 237 249 244 245 142 100 175 124 155 212 112 301 259 184 204 219 230 262 239 220 235 257 260 275 294 268 247 210 79 237 281 238 82 94 107 127 122 120
237 186 283 344 343 311 260 215 245 250 251 235 239 256 207 229 263 269 240 204 131 191 150 200 141 143 187 204 257 244 240 264 241 257 274 276 249 258 248 264 290 281 227 165 66 326 308 268 95 106 116 106 103 78
259 248 220 328 343 295 288 232 206 258 247 250 251 241 231 245 238 245 240 234 202 194 123 124 120 187 228 213 223 249 231 213 249 284 272 279 267 282 288 259 246 149 172 189 141 247 258 237 197 168 203 206 135 173
263 252 212 249 326 264 264 251 195 256 266 254 255 263 230 229 262 253 252 177 154 185 166 191 201 214 199 227 198 220 196 174 144 5 323 324 269 262 320 288 121 131 188 208 169 204 218 197 183 182 186 199 205 240
163 195 191 173 181 221 274 283 258 231 289 275 264 247 262 274 256 226 239 148 108 194 217 213 222 240 205 237 210 158 169 154 184 180 203 278 245 194 311 302 130 116 135 175 175 191 193 219 234 207 200 225 230 235
206 191 142 181 220 214 241 219 246 278 273 264 301 230 268 268 242 222 152 144 210 221 195 187 219 212 206 207 177 182 187 161 147 168 136 140 119 276 262 224 152 241 237 209 183 200 231 229 206 196 196 231 231 246
211 179 228 177 226 219 259 147 239 240 254 264 308 265 245 250 233 114 210 210 238 224 204 206 211 178 194 174 122 120 161 150 170 231 233 217 220 220 229 225 203 195 237 269 214 220 209 201 217 214 220 230 247 278
155 210 223 223 210 255 311 250 223 257 262 263 247 267 258 236 167 138 244 243 245 264 194 201 148 107 57 91 164 184 191 171 185 260 202 172 216 255 215 235 226 220 210 211 221 238 245 237 213 197 203 243 258 277
179 224 202 240 227 225 220 242 221 215 247 232 252 269 260 352 250 221 233 265 292 264 236 186 180 172 148 178 226 216 185 171 182 231 241 191 177 267 276 246 244 234 181 184 214 218 240 200 206 212 224 231 252 269
216 201 198 202 196 214 222 244 214 212 226 249 238 255 331 262 249 255 245 261 270 284 210 191 177 154 205 196 172 204 219 171 143 211 262 199 192 192 229 237 268 273 189 201 167 200 216 204 209 214 237 245 247 250
232 218 204 229 244 265 267 251 267 257 254 239 237 270 238 225 234 267 300 277 239 247 222 216 185 191 212 226 248 248 165 163 184 192 188 209 213 201 194 215 241 236 169 193 193 193 194 198 208 219 234 247 247 245
254 275 213 181 203 217 266 279 247 231 246 261 282 250 257 206 200 241 232 258 242 268 271 269 244 233 237 228 207 225 223 200 248 251 267 261 228 221 216 228 236 232 237 205 200 194 204 195 198 218 232 248 272 244
234 232 216 228 209 233 219 207 228 237 212 138 143 274 280 297 236 290 270 223 236 251 284 296 300 247 250 258 236 205 177 159 155 219 245 257 301 279 223 217 210 216 178 175 188 211 204 193 201 214 228 219 224 286
234 192 215 226 208 217 234 192 226 235 211 209 187 324 305 286 254 249 271 269 232 234 225 233 230 194 253 209 268 274 201 182 187 196 211 232 239 240 185 183 195 204 185 164 159 160 139 127 102 126 168 209 231 268
236 176 224 229 248 235 228 236 254 240 228 227 208 200 260 283 299 256 239 227 232 241 281 287 298 182 178 200 207 220 270 233 218 220 219 232 230 208 205 198 206 172 177 173 159 189 182 165 185 205 228 243 253 246
209 207 194 228 254 254 240 218 228 224 227 212 241 194 221 207 253 273 248 162 163 242 248 240 258 268 218 237 190 213 215 243 201 211 221 222 240 230 215 196 187 179 171 180 193 189 198 208 210 215 223 242 256 265
210 196 207 259 278 266 245 186 236 261 206 211 222 193 190 181 218 248 257 202 203 224 244 235 235 247 244 230 233 260 263 247 254 219 220 221 223 211 178 191 183 186 183 194 202 198 206 211 229 239 240 239 249 248